User: anonymous   Login
Location: Unspecified
(0.0000°N, 0.0000°E)
Time: 03:56:03
(UTC+02:00)
Language:

Centaur AC-64 - Orbit

View from above orbital plane
View from above orbital plane
View from above satellite
View from above satellite

Ground track
Ground track

The orbit data is extracted from the following two-line orbital elements,

1 15874U 85055B   15146.81474808  .00000270  00000-0  19753-3 0  9992
2 15874 023.0395 161.8057 6583823 166.9616 230.4381 03.16284985306519
Epoch (UTC): 26 May 2015 19:33:14
Eccentricity: 0.6583823
inclination: 23.0395°
perigee height: 319 km
apogee height: 26133 km
right ascension of ascending node: 161.8057°
argument of perigee: 166.9616°
revolutions per day: 3.16284985
mean anomaly at epoch: 230.4381°
orbit number at epoch: 30651

The dashed part of the orbit path shows where the satellite is in the earth's shadow,  

DLR